Location: Unspecified
(47.6580°N, 23.5876°E)
Time: 10:36:39
(UTC+03:00)

ISS - Pass Details

Date: 09 October 2015
Orbit: 411 x 421 km, 51.6° (Epoch: 15 October)

Event Time Altitude Azimuth Distance (km) Brightness Sun altitude
Rises 20:29:42 0° 292° (WNW) 2,354 1.6 -17.6°
Reaches altitude 10° 20:31:49 10° 296° (WNW) 1,488 0.2 -17.9°
Maximum altitude 20:35:07 60° 17° (NNE) 480 -3.6 -18.5°
Enters shadow 20:35:26 56° 47° (NE) 498 -3.7 -18.5°
